Погода в Крайновке

Россия / Республика Дагестан     43°58′31″N   47°22′33″E
темп.,
°C
ветер,
м/с
пор.,
м/с
влажн.,
%
обл.,
%
осадки,
мм/ч
давл.,
гПа
погр.,
м
26 июня, вс
вс2600:00+24св237472 0.0 100781
03:00+23сз3374100 0.0 100762
06:00+24с117499 0.0 100749
09:00+25св4573100 0.0 1006242
12:00+25всв556996 0.0 1005262
15:00+25в456646 0.0 1004221
18:00+26св236431 0.0 100486
21:00+25ссв447655 0.1 100537
27 июня, пн
пн2700:00+23зсз6978100 0.6 1006202
03:00+22з8128098 0.7 1006286
06:00+22з910811 0.0 1006261
09:00+26ссв55800 0.0 1007243
12:00+25св811780 0.0 1008534
15:00+25св914740 0.0 1008529
18:00+25ссв8136975 0.0 1007532
21:00+25ссв71170100 0.1 1008401
28 июня, вт
вт2800:00+24ссв81272100 0.5 1008548
03:00+24ссв91371100 0.5 1008574
06:00+24с71072100 0.0 1008809
09:00+24с88700 0.0 1009896
12:00+25с1010700 0.0 10101026
15:00+24с811650 0.1 1010717
18:00+25ссз58631 0.0 1011367
21:00+24сз56655 0.0 1012117
29 июня, ср
ср2900:00+24ссз56624 0.0 1011114
03:00+23сз555865 0.0 1011101
06:00+25с4563100 0.0 1012129
09:00+25ссв5766100 0.0 1013406
12:00+24всв77785 0.0 1013567
15:00+24всв98727 0.0 1014788
18:00+22всв8973100 0.0 1014630
21:00+22в786858 0.0 1015510
30 июня, чт
чт3000:00+23всв78557 0.0 1015644
03:00+23в775012 0.0 1015754
06:00+23в67487 0.0 10151010
09:00+23в66485 0.0 10151160
12:00+23всв66493 0.0 10151147
15:00+24всв55495 0.0 10151218
18:00+23вюв33506 0.0 1015788
21:00+22ю335419 0.0 1016341